Flag for Germany Weather past 2 weeks in Emsdetten, North Rhine-Westphalia, Germany

Now
77 °F

Sunny.


Feels Like: 79 °F
Forecast: 57 / 64 °F
Wind: 16 mph from West

Location: Muenster / Osnabrueck

Current Time: Jul 7, 2015 at 8:22:04 PM

Latest Report: Jul 7, 2015 at 7:50 PM


Visibility: 10 mi

Pressure: 29.71 "Hg

Humidity: 51%

Dew point: 57 °F

Location of EmsdettenLocation

Historic Weather in Emsdetten — Graph

°F

Emsdetten temperature yesterday

Maximum temperature yesterday: 77 °F (at 4:50 PM)
Minimum temperature yesterday: 57 °F (at 4:20 AM)
Average temperature yesterday: 67 °F

Past Weeks' High & Low Weather Summary

 TemperatureHumidityPressure
High99 °F (Jul 2, 3:20 PM)100% (Jun 22, 10:50 PM)30.27 "Hg (Jun 22, 10:50 PM)
Low46 °F (Jun 23, 3:50 AM)25% (Jul 1, 2:20 PM)29.65 "Hg (Jun 22, 8:50 PM)
Average69 °F66%30.07 "Hg
* Reported Jun 22 7:20 PM — Jul 7 7:20 PM, Emsdetten, Weather by CustomWeather, © 2015

Note: Actual official high and low records may vary slightly from our data, if they occured in-between our weather recording intervals... More about our weather records

Advertising

Emsdetten weather history for previous 24 hours

 ConditionsComfort  
Time TempWeatherWind HumidityBarometerVisibility
7:20 PM
Tue, Jul 7
77 °FBroken clouds.15 mph47%29.71 "HgN/A
6:50 PM79 °FBroken clouds.21 mph51%29.68 "HgN/A
6:20 PM79 °FScattered showers. Partly sunny.9 mph61%29.68 "HgN/A
5:50 PM75 °FThunderstorms. Broken clouds.22 mph61%29.71 "HgN/A
5:20 PM84 °FScattered showers. Broken clouds.6 mph40%29.68 "HgN/A
4:50 PM84 °FScattered showers. Broken clouds.3 mph37%29.71 "HgN/A
4:20 PM82 °FSprinkles. Broken clouds.6 mph40%29.71 "HgN/A
3:50 PM84 °FSprinkles. Broken clouds.3 mph33%29.74 "HgN/A
3:20 PM84 °FSprinkles. Broken clouds.6 mph35%29.74 "HgN/A
2:50 PM84 °FSprinkles. Broken clouds.6 mph33%29.77 "HgN/A
2:20 PM84 °FSunny.8 mph31%29.77 "Hg10 mi
1:50 PM84 °FSunny.9 mph31%29.80 "Hg10 mi
1:20 PM86 °FPassing clouds.8 mph29%29.80 "HgN/A
12:50 PM84 °FSunny.8 mph31%29.80 "Hg10 mi
12:20 PM84 °FBroken clouds.8 mph35%29.83 "HgN/A
11:50 AM81 °FScattered clouds.6 mph42%29.83 "HgN/A
11:20 AM79 °FScattered clouds.6 mph42%29.83 "HgN/A
10:50 AM77 °FSunny.5 mph47%29.86 "Hg10 mi
10:20 AM77 °FSunny.6 mph44%29.86 "Hg10 mi
9:50 AM75 °FSunny.5 mph54%29.89 "Hg10 mi
9:20 AM72 °FSunny.5 mph61%29.89 "Hg10 mi
8:50 AM70 °FSunny.2 mph64%29.92 "Hg10 mi
8:20 AM66 °FSunny.5 mph68%29.92 "Hg10 mi
7:50 AM64 °FSunny.2 mph73%29.92 "Hg10 mi
7:20 AM63 °FSunny.2 mph77%29.95 "Hg10 mi
6:50 AM61 °FSunny.5 mph77%29.95 "Hg10 mi
6:20 AM59 °FSunny.3 mph82%29.95 "Hg10 mi
5:50 AM57 °FClear.2 mph88%29.98 "Hg10 mi
5:20 AM55 °FClear.1 mph94%29.98 "Hg10 mi
4:50 AM57 °FClear.2 mph88%29.98 "Hg10 mi
4:20 AM57 °FClear.2 mph88%29.98 "Hg10 mi
3:50 AM59 °FClear.3 mph82%29.98 "Hg10 mi
3:20 AM55 °FClear.1 mph94%30.01 "Hg10 mi
2:50 AM55 °FClear.1 mph88%30.01 "Hg10 mi
2:20 AM55 °FClear.No wind94%30.01 "Hg10 mi
1:50 AM55 °FClear.1 mph94%30.04 "Hg10 mi
1:20 AM57 °FClear.2 mph82%30.04 "Hg10 mi
12:50 AM57 °FClear.No wind82%30.04 "Hg10 mi
12:20 AM59 °FClear.1 mph82%30.04 "Hg10 mi
11:50 PM
Mon, Jul 6
59 °FClear.1 mph77%30.07 "Hg10 mi
11:20 PM61 °FClear.1 mph72%30.07 "Hg10 mi
10:50 PM63 °FClear.1 mph68%30.07 "Hg10 mi
10:20 PM63 °FSunny.1 mph68%30.07 "Hg10 mi
9:50 PM64 °FSunny.2 mph64%30.07 "Hg10 mi
9:20 PM70 °FSunny.2 mph53%30.07 "Hg10 mi
8:50 PM72 °FSunny.5 mph44%30.07 "Hg10 mi
8:20 PM73 °FSunny.5 mph44%30.07 "Hg10 mi
Weather by CustomWeather, © 2015

See weather overviewHow to use our weather pages